| time (UTC) | temp C | wind direction | speed KPH | gust KPH | rain 1hr cm | rain 24hr cm | rain mn cm | humidity % | barometer mb |
| 20260506151009 | 11 | 323 | 14.5 | 29.0 | 0.00 | 0.28 | 0.28 | 43 | 1015.1 |
| 20260506150506 | 10 | 40 | 16.1 | 29.0 | 0.00 | 0.28 | 0.28 | 39 | 1015.2 |
| 20260506150006 | 10 | 5 | 12.9 | 29.0 | 0.00 | 0.28 | 0.28 | 42 | 1015.1 |
| 20260506145503 | 10 | 323 | 19.3 | 25.7 | 0.00 | 0.28 | 0.28 | 42 | 1014.9 |
| 20260506145001 | 10 | 309 | 11.3 | 19.3 | 0.00 | 0.28 | 0.28 | 49 | 1014.7 |
| 20260506144607 | 10 | 313 | 12.9 | 24.1 | 0.00 | 0.28 | 0.28 | 49 | 1014.7 |
| 20260506144059 | 10 | 315 | 14.5 | 24.1 | 0.00 | 0.28 | 0.28 | 49 | 1014.8 |
| 20260506143558 | 10 | 293 | 12.9 | 22.5 | 0.00 | 0.28 | 0.28 | 54 | 1014.7 |
| 20260506143059 | 10 | 316 | 14.5 | 22.5 | 0.00 | 0.28 | 0.28 | 52 | 1014.7 |
| 20260506142557 | 10 | 323 | 11.3 | 20.9 | 0.00 | 0.28 | 0.28 | 54 | 1014.6 |
| 20260506142058 | 9 | 355 | 14.5 | 20.9 | 0.00 | 0.28 | 0.28 | 55 | 1014.4 |
| 20260506141556 | 9 | 327 | 9.7 | 16.1 | 0.00 | 0.28 | 0.28 | 58 | 1014.3 |
| 20260506141055 | 8 | 331 | 4.8 | 9.7 | 0.00 | 0.28 | 0.28 | 60 | 1014.3 |
| 20260506140555 | 8 | 360 | 4.8 | 9.7 | 0.00 | 0.28 | 0.28 | 62 | 1014.2 |
| 20260506140055 | 8 | 315 | 3.2 | 6.4 | 0.00 | 0.28 | 0.28 | 64 | 1014.3 |
| 20260506135554 | 7 | 16 | 0.0 | 6.4 | 0.00 | 0.28 | 0.28 | 65 | 1014.1 |
| 20260506135053 | 7 | 16 | 1.6 | 6.4 | 0.00 | 0.28 | 0.28 | 66 | 1014.2 |
| 20260506134552 | 7 | 46 | 1.6 | 4.8 | 0.00 | 0.28 | 0.28 | 67 | 1014.1 |
| 20260506134052 | 6 | 46 | 1.6 | 4.8 | 0.00 | 0.28 | 0.28 | 69 | 1014.1 |
| 20260506133549 | 6 | 300 | 0.0 | 4.8 | 0.00 | 0.28 | 0.28 | 70 | 1014.0 |
| 20260506133104 | 6 | 300 | 1.6 | 11.3 | 0.00 | 0.28 | 0.28 | 71 | 1014.0 |
| 20260506132546 | 6 | 300 | 1.6 | 11.3 | 0.00 | 0.28 | 0.28 | 71 | 1013.9 |
| 20260506132046 | 6 | 322 | 0.0 | 8.0 | 0.00 | 0.28 | 0.28 | 72 | 1013.8 |
| 20260506131547 | 6 | 360 | 3.2 | 8.0 | 0.00 | 0.28 | 0.28 | 73 | 1013.7 |
| 20260506131044 | 5 | 134 | 0.0 | 1.6 | 0.00 | 0.28 | 0.28 | 73 | 1013.5 |
| 20260506130544 | 5 | 134 | 0.0 | 1.6 | 0.00 | 0.28 | 0.28 | 73 | 1013.4 |
| 20260506130043 | 6 | 360 | 0.0 | 1.6 | 0.00 | 0.28 | 0.28 | 72 | 1013.3 |
| 20260506125542 | 5 | 133 | 0.0 | 1.6 | 0.00 | 0.28 | 0.28 | 72 | 1012.9 |
| 20260506125041 | 5 | 132 | 0.0 | 3.2 | 0.00 | 0.28 | 0.28 | 71 | 1012.9 |
| 20260506124541 | 5 | 132 | 0.0 | 3.2 | 0.00 | 0.28 | 0.28 | 70 | 1012.9 |
| 20260506124042 | 6 | 132 | 0.0 | 0.0 | 0.00 | 0.28 | 0.28 | 69 | 1012.8 |
| 20260506123542 | 6 | 132 | 0.0 | 0.0 | 0.00 | 0.28 | 0.28 | 68 | 1012.7 |
| 20260506123040 | 7 | 132 | 0.0 | 0.0 | 0.00 | 0.28 | 0.28 | 67 | 1012.6 |
| 20260506122540 | 7 | 132 | 0.0 | 0.0 | 0.00 | 0.28 | 0.28 | 67 | 1012.6 |
| 20260506122040 | 6 | 132 | 0.0 | 0.0 | 0.00 | 0.28 | 0.28 | 67 | 1012.6 |
| 20260506121537 | 6 | 132 | 0.0 | 0.0 | 0.00 | 0.28 | 0.28 | 66 | 1012.6 |
| 20260506121037 | 7 | 132 | 0.0 | 1.6 | 0.00 | 0.28 | 0.28 | 65 | 1012.6 |
| 20260506120537 | 7 | 132 | 0.0 | 3.2 | 0.00 | 0.28 | 0.28 | 65 | 1012.4 |
| 20260506120052 | 7 | 132 | 0.0 | 3.2 | 0.00 | 0.28 | 0.28 | 66 | 1012.3 |
| 20260506115536 | 7 | 132 | 0.0 | 0.0 | 0.00 | 0.28 | 0.28 | 66 | 1012.3 |
| 20260506115035 | 7 | 132 | 0.0 | 0.0 | 0.00 | 0.28 | 0.28 | 67 | 1012.4 |
| 20260506114535 | 7 | 132 | 0.0 | 0.0 | 0.00 | 0.28 | 0.28 | 67 | 1012.3 |
| 20260506114035 | 6 | 132 | 0.0 | 0.0 | 0.00 | 0.28 | 0.28 | 66 | 1012.3 |
| 20260506113534 | 6 | 131 | 0.0 | 1.6 | 0.00 | 0.28 | 0.28 | 67 | 1012.2 |
| 20260506113034 | 6 | 131 | 0.0 | 1.6 | 0.00 | 0.28 | 0.28 | 68 | 1012.2 |
| 20260506112536 | 6 | 131 | 0.0 | 0.0 | 0.00 | 0.28 | 0.28 | 68 | 1012.3 |
| 20260506112033 | 6 | 131 | 0.0 | 4.8 | 0.00 | 0.28 | 0.28 | 68 | 1012.2 |
| 20260506111533 | 6 | 131 | 0.0 | 8.0 | 0.00 | 0.28 | 0.28 | 68 | 1012.0 |
| 20260506111033 | 6 | 136 | 1.6 | 8.0 | 0.00 | 0.28 | 0.28 | 68 | 1012.0 |
| 20260506110533 | 6 | 82 | 0.0 | 14.5 | 0.00 | 0.28 | 0.28 | 68 | 1012.2 |
| 20260506110032 | 6 | 98 | 3.2 | 14.5 | 0.00 | 0.28 | 0.28 | 68 | 1012.1 |
| 20260506105534 | 6 | 136 | 6.4 | 14.5 | 0.00 | 0.28 | 0.28 | 68 | 1011.9 |
| 20260506105031 | 6 | 53 | 4.8 | 22.5 | 0.00 | 0.28 | 0.28 | 67 | 1012.0 |
| 20260506104539 | 6 | 360 | 9.7 | 22.5 | 0.00 | 0.28 | 0.28 | 68 | 1012.0 |
| 20260506104030 | 6 | 88 | 8.0 | 25.7 | 0.00 | 0.28 | 0.28 | 68 | 1012.0 |
| 20260506103529 | 6 | 360 | 11.3 | 25.7 | 0.00 | 0.28 | 0.28 | 70 | 1012.0 |
| 20260506103039 | 6 | 123 | 9.7 | 24.1 | 0.00 | 0.28 | 0.28 | 71 | 1011.9 |
| 20260506102531 | 6 | 66 | 6.4 | 19.3 | 0.00 | 0.28 | 0.28 | 73 | 1011.8 |
| 20260506102027 | 6 | 59 | 4.8 | 19.3 | 0.00 | 0.28 | 0.28 | 74 | 1011.9 |
| 20260506101527 | 6 | 41 | 4.8 | 19.3 | 0.00 | 0.28 | 0.28 | 74 | 1011.7 |
| 20260506101026 | 6 | 59 | 8.0 | 25.7 | 0.00 | 0.28 | 0.28 | 76 | 1011.7 |
| 20260506100525 | 6 | 98 | 3.2 | 25.7 | 0.00 | 0.28 | 0.28 | 77 | 1011.4 |
| 20260506100023 | 6 | 70 | 8.0 | 24.1 | 0.00 | 0.28 | 0.28 | 78 | 1011.2 |
| 20260506095523 | 6 | 82 | 6.4 | 19.3 | 0.00 | 0.28 | 0.28 | 79 | 1011.1 |
| 20260506095025 | 5 | 80 | 3.2 | 14.5 | 0.03 | 0.28 | 0.28 | 80 | 1010.9 |
| 20260506094521 | 5 | 82 | 3.2 | 19.3 | 0.03 | 0.28 | 0.28 | 80 | 1010.7 |
| 20260506094019 | 5 | 80 | 6.4 | 19.3 | 0.05 | 0.28 | 0.28 | 81 | 1010.6 |
| 20260506093518 | 5 | 78 | 1.6 | 17.7 | 0.08 | 0.28 | 0.28 | 80 | 1010.4 |
| 20260506093021 | 5 | 148 | 4.8 | 17.7 | 0.13 | 0.28 | 0.28 | 81 | 1010.5 |
| 20260506092518 | 5 | 115 | 3.2 | 14.5 | 0.18 | 0.28 | 0.28 | 81 | 1010.4 |
| 20260506092016 | 5 | 71 | 4.8 | 14.5 | 0.28 | 0.28 | 0.28 | 81 | 1010.4 |
| 20260506091517 | 5 | 100 | 1.6 | 14.5 | 0.28 | 0.28 | 0.28 | 81 | 1010.2 |
| 20260506091014 | 5 | 67 | 4.8 | 17.7 | 0.28 | 0.28 | 0.28 | 80 | 1010.0 |
| 20260506090513 | 6 | 82 | 3.2 | 20.9 | 0.28 | 0.28 | 0.28 | 80 | 1010.0 |
| 20260506090011 | 6 | 115 | 3.2 | 16.1 | 0.28 | 0.28 | 0.28 | 79 | 1009.8 |
| 20260506085509 | 6 | 122 | 4.8 | 22.5 | 0.28 | 0.28 | 0.28 | 78 | 1009.7 |
| 20260506085008 | 6 | 104 | 4.8 | 20.9 | 0.25 | 0.25 | 0.25 | 77 | 1009.7 |
| 20260506084509 | 6 | 50 | 3.2 | 17.7 | 0.25 | 0.25 | 0.25 | 76 | 1009.6 |
| 20260506084010 | 7 | 360 | 4.8 | 19.3 | 0.23 | 0.23 | 0.23 | 74 | 1009.4 |
| 20260506083505 | 8 | 360 | 4.8 | 17.7 | 0.18 | 0.18 | 0.18 | 73 | 1009.3 |
| 20260506083003 | 8 | 36 | 6.4 | 24.1 | 0.13 | 0.13 | 0.13 | 71 | 1008.8 |
| 20260506082502 | 10 | 45 | 11.3 | 25.7 | 0.08 | 0.08 | 0.08 | 70 | 1008.4 |
| 20260506082100 | 11 | 72 | 16.1 | 25.7 | 0.00 | 0.00 | 0.00 | 70 | 1008.3 |
| 20260506081601 | 11 | 52 | 4.8 | 8.0 | 0.00 | 0.00 | 0.00 | 71 | 1007.6 |
| 20260506081057 | 11 | 144 | 0.0 | 4.8 | 0.00 | 0.00 | 0.00 | 70 | 1006.7 |
| 20260506080559 | 11 | 121 | 0.0 | 9.7 | 0.00 | 0.00 | 0.00 | 70 | 1006.7 |
| 20260506080104 | 11 | 109 | 0.0 | 9.7 | 0.00 | 0.00 | 0.00 | 69 | 1006.7 |
| 20260506073054 | 11 | 118 | 0.0 | 11.3 | 0.00 | 0.00 | 0.00 | 68 | 1006.7 |
| 20260506072554 | 11 | 94 | 1.6 | 11.3 | 0.00 | 0.00 | 0.00 | 68 | 1006.7 |
| 20260506072053 | 11 | 112 | 0.0 | 4.8 | 0.00 | 0.00 | 0.00 | 67 | 1006.6 |
| 20260506071551 | 11 | 114 | 0.0 | 6.4 | 0.00 | 0.00 | 0.00 | 67 | 1006.8 |
| 20260506071051 | 11 | 155 | 0.0 | 6.4 | 0.00 | 0.00 | 0.00 | 67 | 1006.8 |
| 20260506070552 | 11 | 100 | 0.0 | 6.4 | 0.00 | 0.00 | 0.00 | 67 | 1006.8 |
| 20260506062042 | 12 | 232 | 0.0 | 4.8 | 0.00 | 0.00 | 0.00 | 56 | 1006.3 |
| 20260506061540 | 12 | 230 | 0.0 | 3.2 | 0.00 | 0.00 | 0.00 | 56 | 1006.1 |
| 20260506061039 | 12 | 227 | 0.0 | 12.9 | 0.00 | 0.00 | 0.00 | 56 | 1006.0 |
| 20260506060537 | 12 | 242 | 1.6 | 12.9 | 0.00 | 0.00 | 0.00 | 57 | 1006.0 |
| 20260506051033 | 12 | 331 | 1.6 | 8.0 | 0.00 | 0.00 | 0.00 | 60 | 1005.6 |
| 20260506050533 | 12 | 347 | 0.0 | 4.8 | 0.00 | 0.00 | 0.00 | 60 | 1005.6 |
| 20260506045030 | 13 | 274 | 3.2 | 9.7 | 0.00 | 0.00 | 0.00 | 52 | 1005.4 |
| 20260506044536 | 13 | 155 | 0.0 | 3.2 | 0.00 | 0.00 | 0.00 | 52 | 1005.0 |
| 20260506044030 | 13 | 155 | 0.0 | 3.2 | 0.00 | 0.00 | 0.00 | 52 | 1005.0 |
| 20260506043533 | 13 | 150 | 0.0 | 4.8 | 0.00 | 0.00 | 0.00 | 52 | 1004.9 |
| 20260506043028 | 12 | 207 | 0.0 | 4.8 | 0.00 | 0.00 | 0.00 | 52 | 1004.8 |
| 20260506042529 | 12 | 164 | 1.6 | 4.8 | 0.00 | 0.00 | 0.00 | 52 | 1004.7 |
| 20260506042029 | 13 | 171 | 1.6 | 6.4 | 0.00 | 0.00 | 0.00 | 52 | 1004.8 |
| 20260506041529 | 12 | 163 | 0.0 | 8.0 | 0.00 | 0.00 | 0.00 | 52 | 1004.7 |
| 20260506041026 | 12 | 182 | 1.6 | 8.0 | 0.00 | 0.00 | 0.00 | 52 | 1004.7 |
| 20260506040531 | 13 | 167 | 0.0 | 4.8 | 0.00 | 0.00 | 0.00 | 52 | 1004.5 |
| 20260506040033 | 13 | 158 | 1.6 | 4.8 | 0.00 | 0.00 | 0.00 | 52 | 1004.6 |
| 20260506035527 | 13 | 168 | 1.6 | 4.8 | 0.00 | 0.00 | 0.00 | 51 | 1004.6 |
| 20260506035027 | 13 | 140 | 0.0 | 8.0 | 0.00 | 0.00 | 0.00 | 51 | 1004.4 |
| 20260506034526 | 13 | 151 | 1.6 | 8.0 | 0.00 | 0.00 | 0.00 | 52 | 1004.5 |
| 20260506034027 | 13 | 155 | 1.6 | 8.0 | 0.00 | 0.00 | 0.00 | 51 | 1004.4 |
| 20260506033525 | 13 | 132 | 0.0 | 4.8 | 0.00 | 0.00 | 0.00 | 52 | 1004.3 |
| 20260506033025 | 13 | 142 | 0.0 | 4.8 | 0.00 | 0.00 | 0.00 | 51 | 1004.4 |
| 20260506032525 | 13 | 166 | 0.0 | 4.8 | 0.00 | 0.00 | 0.00 | 51 | 1004.4 |
| 20260506032025 | 13 | 156 | 1.6 | 4.8 | 0.00 | 0.00 | 0.00 | 51 | 1004.1 |
| 20260506031525 | 13 | 166 | 0.0 | 4.8 | 0.00 | 0.00 | 0.00 | 51 | 1004.1 |
| 20260506031025 | 13 | 107 | 1.6 | 9.7 | 0.00 | 0.00 | 0.00 | 50 | 1004.1 |
| 20260506030524 | 13 | 162 | 1.6 | 11.3 | 0.00 | 0.00 | 0.00 | 50 | 1004.1 |
| 20260506030026 | 13 | 172 | 3.2 | 11.3 | 0.00 | 0.00 | 0.00 | 50 | 1004.0 |
| 20260506025524 | 13 | 147 | 0.0 | 8.0 | 0.00 | 0.00 | 0.00 | 50 | 1004.1 |
| 20260506025028 | 13 | 151 | 1.6 | 4.8 | 0.00 | 0.00 | 0.00 | 49 | 1004.1 |
| 20260506024524 | 13 | 167 | 0.0 | 6.4 | 0.00 | 0.00 | 0.00 | 49 | 1003.9 |
| 20260506024024 | 14 | 150 | 0.0 | 4.8 | 0.00 | 0.00 | 0.00 | 48 | 1003.9 |
| 20260506023524 | 14 | 175 | 0.0 | 8.0 | 0.00 | 0.00 | 0.00 | 48 | 1003.8 |
| 20260506023040 | 14 | 153 | 1.6 | 8.0 | 0.00 | 0.00 | 0.00 | 48 | 1003.7 |
| 20260506022523 | 14 | 184 | 0.0 | 4.8 | 0.00 | 0.00 | 0.00 | 48 | 1003.6 |
| 20260506022027 | 15 | 159 | 0.0 | 4.8 | 0.00 | 0.00 | 0.00 | 47 | 1003.6 |
| 20260506021533 | 15 | 148 | 0.0 | 4.8 | 0.00 | 0.00 | 0.00 | 48 | 1003.6 |
| 20260506021025 | 15 | 165 | 0.0 | 4.8 | 0.00 | 0.00 | 0.00 | 47 | 1003.4 |
| 20260506020524 | 15 | 161 | 1.6 | 8.0 | 0.00 | 0.00 | 0.00 | 47 | 1003.3 |
| 20260506020026 | 15 | 136 | 0.0 | 3.2 | 0.00 | 0.00 | 0.00 | 47 | 1003.2 |
| 20260506015525 | 15 | 184 | 0.0 | 8.0 | 0.00 | 0.00 | 0.00 | 48 | 1003.3 |
| 20260506015026 | 15 | 150 | 1.6 | 11.3 | 0.00 | 0.00 | 0.00 | 47 | 1003.3 |
| 20260506014522 | 15 | 175 | 1.6 | 11.3 | 0.00 | 0.00 | 0.00 | 46 | 1003.3 |
| 20260506014022 | 15 | 187 | 1.6 | 4.8 | 0.00 | 0.00 | 0.00 | 47 | 1003.3 |
| 20260506013522 | 15 | 138 | 0.0 | 9.7 | 0.00 | 0.00 | 0.00 | 47 | 1003.3 |
| 20260506013030 | 15 | 147 | 0.0 | 9.7 | 0.00 | 0.00 | 0.00 | 46 | 1003.3 |
| 20260506012522 | 15 | 144 | 1.6 | 9.7 | 0.00 | 0.00 | 0.00 | 46 | 1003.3 |
| 20260506012022 | 15 | 165 | 1.6 | 9.7 | 0.00 | 0.00 | 0.00 | 46 | 1003.3 |
| 20260506011521 | 15 | 147 | 1.6 | 8.0 | 0.00 | 0.00 | 0.00 | 46 | 1003.3 |
| 20260506011021 | 15 | 140 | 1.6 | 8.0 | 0.00 | 0.00 | 0.00 | 47 | 1003.3 |
| 20260506010521 | 15 | 166 | 1.6 | 6.4 | 0.00 | 0.00 | 0.00 | 46 | 1003.3 |
| 20260506010021 | 15 | 169 | 0.0 | 4.8 | 0.00 | 0.00 | 0.00 | 47 | 1003.3 |
| 20260506005521 | 15 | 163 | 0.0 | 3.2 | 0.00 | 0.00 | 0.00 | 46 | 1003.3 |
| 20260506005022 | 15 | 162 | 1.6 | 8.0 | 0.00 | 0.00 | 0.00 | 46 | 1003.3 |
| 20260506004525 | 15 | 142 | 0.0 | 6.4 | 0.00 | 0.00 | 0.00 | 46 | 1003.3 |
| 20260506004021 | 15 | 141 | 0.0 | 6.4 | 0.00 | 0.00 | 0.00 | 46 | 1003.3 |
| 20260506003520 | 15 | 161 | 0.0 | 3.2 | 0.00 | 0.00 | 0.00 | 47 | 1003.3 |
| 20260506003020 | 15 | 158 | 1.6 | 3.2 | 0.00 | 0.00 | 0.00 | 46 | 1003.3 |
| 20260506002519 | 15 | 157 | 1.6 | 6.4 | 0.00 | 0.00 | 0.00 | 46 | 1003.4 |
| 20260506002022 | 15 | 159 | 0.0 | 6.4 | 0.00 | 0.00 | 0.00 | 47 | 1003.4 |
| 20260506001518 | 15 | 153 | 1.6 | 4.8 | 0.00 | 0.00 | 0.00 | 46 | 1003.4 |
| 20260506001018 | 15 | 169 | 1.6 | 4.8 | 0.00 | 0.00 | 0.00 | 45 | 1003.4 |
| 20260506000517 | 15 | 131 | 0.0 | 6.4 | 0.00 | 0.00 | 0.00 | 45 | 1003.4 |
| 20260506000017 | 15 | 159 | 1.6 | 3.2 | 0.00 | 0.00 | 0.00 | 45 | 1003.4 |
| 20260505235517 | 15 | 159 | 0.0 | 8.0 | 0.00 | 0.00 | 0.00 | 46 | 1003.5 |
| 20260505235017 | 15 | 186 | 1.6 | 8.0 | 0.00 | 0.00 | 0.00 | 46 | 1003.5 |
| 20260505234517 | 15 | 142 | 0.0 | 11.3 | 0.00 | 0.00 | 0.00 | 47 | 1003.5 |
| 20260505234016 | 15 | 154 | 0.0 | 11.3 | 0.00 | 0.00 | 0.00 | 47 | 1003.5 |
| 20260505233516 | 15 | 140 | 0.0 | 8.0 | 0.00 | 0.00 | 0.00 | 48 | 1003.5 |
| 20260505233015 | 15 | 135 | 0.0 | 11.3 | 0.00 | 0.00 | 0.00 | 49 | 1003.6 |
| 20260505232515 | 15 | 111 | 3.2 | 11.3 | 0.00 | 0.00 | 0.00 | 49 | 1003.6 |
| 20260505232017 | 15 | 164 | 1.6 | 6.4 | 0.00 | 0.00 | 0.00 | 49 | 1003.6 |
| 20260505231532 | 15 | 123 | 1.6 | 6.4 | 0.00 | 0.00 | 0.00 | 48 | 1003.6 |
| 20260505231016 | 15 | 108 | 1.6 | 12.9 | 0.00 | 0.00 | 0.00 | 50 | 1003.7 |
| 20260505230513 | 14 | 95 | 1.6 | 9.7 | 0.00 | 0.00 | 0.00 | 51 | 1003.7 |
| 20260505230022 | 14 | 163 | 0.0 | 6.4 | 0.00 | 0.00 | 0.00 | 51 | 1003.8 |
| 20260505225513 | 14 | 164 | 1.6 | 6.4 | 0.00 | 0.00 | 0.00 | 51 | 1003.8 |
| 20260505225013 | 14 | 189 | 1.6 | 4.8 | 0.00 | 0.00 | 0.00 | 52 | 1003.8 |
| 20260505224514 | 14 | 83 | 0.0 | 6.4 | 0.00 | 0.00 | 0.00 | 52 | 1003.8 |
| 20260505224013 | 14 | 187 | 0.0 | 8.0 | 0.00 | 0.00 | 0.00 | 51 | 1003.9 |
| 20260505223513 | 14 | 150 | 0.0 | 8.0 | 0.00 | 0.00 | 0.00 | 56 | 1004.0 |
| 20260505223012 | 13 | 165 | 0.0 | 4.8 | 0.00 | 0.00 | 0.00 | 53 | 1004.0 |
| 20260505222517 | 13 | 164 | 1.6 | 9.7 | 0.00 | 0.00 | 0.00 | 57 | 1004.0 |
| 20260505222012 | 13 | 139 | 0.0 | 8.0 | 0.00 | 0.00 | 0.00 | 60 | 1004.0 |
| 20260505221511 | 12 | 169 | 1.6 | 4.8 | 0.00 | 0.00 | 0.00 | 61 | 1004.0 |
| 20260505221011 | 12 | 156 | 1.6 | 4.8 | 0.00 | 0.00 | 0.00 | 64 | 1004.0 |
| 20260505220512 | 12 | 167 | 0.0 | 14.5 | 0.00 | 0.00 | 0.00 | 65 | 1004.1 |
| 20260505220010 | 12 | 114 | 4.8 | 14.5 | 0.00 | 0.00 | 0.00 | 64 | 1004.1 |
| 20260505215510 | 12 | 117 | 1.6 | 14.5 | 0.00 | 0.00 | 0.00 | 62 | 1004.2 |
| 20260505215010 | 13 | 120 | 6.4 | 14.5 | 0.00 | 0.00 | 0.00 | 59 | 1004.4 |
| 20260505214510 | 13 | 145 | 0.0 | 6.4 | 0.00 | 0.00 | 0.00 | 58 | 1004.4 |
| 20260505214013 | 13 | 121 | 0.0 | 11.3 | 0.00 | 0.00 | 0.00 | 56 | 1004.4 |
| 20260505213510 | 13 | 119 | 0.0 | 6.4 | 0.00 | 0.00 | 0.00 | 53 | 1004.5 |
| 20260505213016 | 13 | 142 | 1.6 | 14.5 | 0.00 | 0.00 | 0.00 | 48 | 1004.6 |
| 20260505212509 | 14 | 157 | 1.6 | 14.5 | 0.00 | 0.00 | 0.00 | 49 | 1004.7 |
| 20260505212009 | 13 | 150 | 0.0 | 4.8 | 0.00 | 0.00 | 0.00 | 48 | 1004.7 |
| 20260505211511 | 13 | 165 | 0.0 | 6.4 | 0.00 | 0.00 | 0.00 | 48 | 1004.6 |
| 20260505211008 | 13 | 165 | 0.0 | 6.4 | 0.00 | 0.00 | 0.00 | 48 | 1004.5 |
| 20260505210508 | 13 | 150 | 0.0 | 8.0 | 0.00 | 0.00 | 0.00 | 49 | 1004.4 |
| 20260505210011 | 13 | 148 | 0.0 | 4.8 | 0.00 | 0.00 | 0.00 | 47 | 1004.2 |
| 20260505205509 | 13 | 163 | 0.0 | 11.3 | 0.00 | 0.00 | 0.00 | 47 | 1004.2 |
| 20260505205008 | 14 | 146 | 1.6 | 11.3 | 0.00 | 0.00 | 0.00 | 48 | 1004.2 |
| 20260505204506 | 14 | 121 | 0.0 | 6.4 | 0.00 | 0.00 | 0.00 | 48 | 1004.2 |
| 20260505204004 | 14 | 142 | 1.6 | 9.7 | 0.00 | 0.00 | 0.00 | 48 | 1004.1 |
| 20260505203505 | 13 | 137 | 3.2 | 9.7 | 0.00 | 0.00 | 0.00 | 49 | 1004.1 |
| 20260505203003 | 13 | 167 | 1.6 | 8.0 | 0.00 | 0.00 | 0.00 | 49 | 1004.1 |
| 20260505202503 | 13 | 145 | 3.2 | 12.9 | 0.00 | 0.00 | 0.00 | 49 | 1004.1 |
| 20260505202004 | 13 | 155 | 1.6 | 12.9 | 0.00 | 0.00 | 0.00 | 49 | 1004.2 |
| 20260505201501 | 13 | 180 | 1.6 | 8.0 | 0.00 | 0.00 | 0.00 | 49 | 1004.1 |
| 20260505201001 | 13 | 165 | 3.2 | 9.7 | 0.00 | 0.00 | 0.00 | 49 | 1004.1 |
| 20260505200501 | 13 | 190 | 1.6 | 9.7 | 0.00 | 0.00 | 0.00 | 49 | 1004.1 |
| 20260505200100 | 13 | 153 | 1.6 | 9.7 | 0.00 | 0.00 | 0.00 | 50 | 1004.0 |
| 20260505195602 | 13 | 158 | 3.2 | 11.3 | 0.00 | 0.00 | 0.00 | 50 | 1004.0 |
| 20260505195103 | 13 | 149 | 3.2 | 9.7 | 0.00 | 0.00 | 0.00 | 50 | 1004.0 |
| 20260505194559 | 13 | 155 | 3.2 | 11.3 | 0.00 | 0.00 | 0.00 | 50 | 1004.0 |
| 20260505194101 | 13 | 186 | 1.6 | 9.7 | 0.00 | 0.00 | 0.00 | 50 | 1004.0 |
| 20260505193601 | 13 | 164 | 3.2 | 8.0 | 0.00 | 0.00 | 0.00 | 50 | 1004.0 |
| 20260505193059 | 13 | 159 | 1.6 | 11.3 | 0.00 | 0.00 | 0.00 | 51 | 1003.9 |
| 20260505192602 | 13 | 146 | 1.6 | 12.9 | 0.00 | 0.00 | 0.00 | 52 | 1004.0 |
| 20260505192059 | 13 | 126 | 4.8 | 14.5 | 0.00 | 0.00 | 0.00 | 51 | 1004.0 |
| 20260505191611 | 13 | 203 | 4.8 | 14.5 | 0.00 | 0.00 | 0.00 | 50 | 1004.0 |
| 20260505191057 | 13 | 161 | 4.8 | 14.5 | 0.00 | 0.00 | 0.00 | 50 | 1004.0 |
| 20260505190557 | 13 | 165 | 3.2 | 14.5 | 0.00 | 0.00 | 0.00 | 51 | 1003.8 |
| 20260505190056 | 13 | 157 | 4.8 | 16.1 | 0.00 | 0.00 | 0.00 | 52 | 1003.9 |
| 20260505185555 | 13 | 147 | 3.2 | 16.1 | 0.00 | 0.00 | 0.00 | 53 | 1003.9 |
| 20260505185055 | 12 | 144 | 3.2 | 14.5 | 0.00 | 0.00 | 0.00 | 53 | 1003.9 |
| 20260505184555 | 12 | 174 | 4.8 | 17.7 | 0.00 | 0.00 | 0.00 | 52 | 1003.8 |
| 20260505184055 | 12 | 132 | 6.4 | 17.7 | 0.00 | 0.00 | 0.00 | 52 | 1003.8 |
| 20260505183555 | 13 | 161 | 3.2 | 14.5 | 0.00 | 0.00 | 0.00 | 53 | 1003.8 |
| 20260505183055 | 13 | 159 | 6.4 | 16.1 | 0.00 | 0.00 | 0.00 | 52 | 1003.7 |
| 20260505182554 | 13 | 199 | 3.2 | 16.1 | 0.00 | 0.00 | 0.00 | 53 | 1003.7 |
| 20260505182054 | 13 | 167 | 3.2 | 9.7 | 0.00 | 0.00 | 0.00 | 54 | 1003.6 |
| 20260505181554 | 13 | 122 | 4.8 | 12.9 | 0.00 | 0.00 | 0.00 | 53 | 1003.7 |
| 20260505181053 | 12 | 170 | 4.8 | 17.7 | 0.00 | 0.00 | 0.00 | 53 | 1003.7 |
| 20260505180552 | 12 | 166 | 4.8 | 17.7 | 0.00 | 0.00 | 0.00 | 54 | 1003.6 |
| 20260505180058 | 12 | 46 | 3.2 | 9.7 | 0.00 | 0.00 | 0.00 | 55 | 1003.5 |
| 20260505175552 | 12 | 166 | 4.8 | 14.5 | 0.00 | 0.00 | 0.00 | 55 | 1003.4 |
| 20260505175054 | 12 | 153 | 6.4 | 14.5 | 0.00 | 0.00 | 0.00 | 55 | 1003.6 |
| 20260505174550 | 12 | 134 | 3.2 | 19.3 | 0.00 | 0.00 | 0.00 | 55 | 1003.7 |
| 20260505174049 | 12 | 195 | 6.4 | 19.3 | 0.00 | 0.00 | 0.00 | 56 | 1003.8 |
| 20260505173549 | 12 | 159 | 6.4 | 16.1 | 0.00 | 0.00 | 0.00 | 56 | 1003.6 |
| 20260505173054 | 12 | 130 | 4.8 | 17.7 | 0.00 | 0.00 | 0.00 | 56 | 1003.6 |
| 20260505172548 | 11 | 203 | 6.4 | 19.3 | 0.00 | 0.00 | 0.00 | 57 | 1003.5 |
| 20260505172046 | 11 | 168 | 9.7 | 19.3 | 0.00 | 0.00 | 0.00 | 56 | 1003.6 |
| 20260505171548 | 11 | 177 | 6.4 | 19.3 | 0.00 | 0.00 | 0.00 | 56 | 1003.4 |
| 20260505171046 | 11 | 149 | 9.7 | 19.3 | 0.00 | 0.00 | 0.00 | 56 | 1003.3 |
| 20260505170545 | 11 | 147 | 6.4 | 19.3 | 0.00 | 0.00 | 0.00 | 57 | 1003.4 |
| 20260505165543 | 11 | 167 | 8.0 | 19.3 | 0.00 | 0.00 | 0.00 | 57 | 1003.3 |
| 20260505165045 | 11 | 136 | 6.4 | 19.3 | 0.00 | 0.00 | 0.00 | 56 | 1003.1 |
| 20260505164543 | 11 | 150 | 6.4 | 19.3 | 0.00 | 0.00 | 0.00 | 57 | 1003.1 |
| 20260505164042 | 12 | 166 | 9.7 | 20.9 | 0.00 | 0.00 | 0.00 | 57 | 1003.0 |
| 20260505163541 | 12 | 190 | 8.0 | 20.9 | 0.00 | 0.00 | 0.00 | 57 | 1003.0 |
| 20260505163042 | 12 | 185 | 6.4 | 19.3 | 0.00 | 0.00 | 0.00 | 58 | 1003.0 |
| 20260505162539 | 12 | 169 | 8.0 | 19.3 | 0.00 | 0.00 | 0.00 | 57 | 1003.0 |
| 20260505162038 | 12 | 206 | 8.0 | 16.1 | 0.00 | 0.00 | 0.00 | 57 | 1003.0 |
| 20260505161539 | 12 | 170 | 4.8 | 11.3 | 0.00 | 0.00 | 0.00 | 57 | 1003.0 |
| 20260505161036 | 12 | 161 | 3.2 | 16.1 | 0.00 | 0.00 | 0.00 | 57 | 1002.9 |
| 20260505160537 | 12 | 177 | 6.4 | 22.5 | 0.00 | 0.00 | 0.00 | 57 | 1002.8 |
| 20260505153029 | 12 | 167 | 4.8 | 9.7 | 0.00 | 0.00 | 0.00 | 55 | 1002.6 |
| 20260505152529 | 12 | 155 | 1.6 | 9.7 | 0.00 | 0.00 | 0.00 | 54 | 1002.6 |
| 20260505152027 | 12 | 167 | 6.4 | 16.1 | 0.00 | 0.00 | 0.00 | 52 | 1002.6 |
| 20260505151527 | 12 | 149 | 4.8 | 16.1 | 0.00 | 0.00 | 0.00 | 52 | 1002.6 |